Weather History for Stansted, United Kingdom

Change the Weather History Date:

Thursday, November 8, 2012

  Actual Average Record
Temperature  
Mean Temperature 48 °F -  
Max Temperature 51 °F 46 °F 60 °F (2005)
Min Temperature 44 °F 36 °F 32 °F (1996)
Degree Days  
Heating Degree Days 18    
Moisture  
Dew Point 43 °F    
Average Humidity 84    
Maximum Humidity 93    
Minimum Humidity 67    
Precipitation  
Precipitation 0.00 in - - ()
Sea Level Pressure  
Sea Level Pressure 30.06 in    
Wind  
Wind Speed 9 mph ()    
Max Wind Speed 13 mph    
Max Gust Speed -    
Visibility 6.2 miles    
Events      
Averages and records for this station are not official NWS values.
T = Trace of Precipitation, MM = Missing Value Source: Averaged Metar Reports

Daily Weather History Graph

Daily Weather History Graph

Search for Another Location

Airport:

Trip Planner

Search our weather history database for the weather conditions in past years. The results will help you decide how hot, cold, wet, or windy it might be!

Date:

Astronomy

Nov. 08, 2012 Rise Set
Actual Time 7:06 AM GMT 4:18 PM GMT
Civil Twilight 6:30 AM GMT 4:54 PM GMT
Nautical Twilight 5:49 AM GMT 5:35 PM GMT
Astronomical Twilight 5:10 AM GMT 6:14 PM GMT
Moon 12:02 AM GMT (11/8) 1:30 PM GMT (11/8)
Length of Visible Light 10h 24m
Length of Day
9h 11m
Waning Crescent, 35% of the Moon is Illuminated
Nov 8
Waning Crescent
Nov 13
New
Nov 20
First Quarter
Nov 28
Full
Dec 6
Last Quarter

Hourly Weather History & Observations

Time (GMT) Temp. Windchill Dew Point Humidity Pressure Visibility Wind Dir Wind Speed Gust Speed Precip Events Conditions
12:20 AM 44.6 °F 40.2 °F 41.0 °F 87% 30.15 in 6.2 mi SW 8.1 mph - N/A   Partly Cloudy
12:50 AM 44.6 °F 39.7 °F 41.0 °F 87% 30.12 in 6.2 mi SW 9.2 mph - N/A   Scattered Clouds
1:20 AM 44.6 °F 38.8 °F 41.0 °F 87% 30.12 in - SW 11.5 mph - N/A   Clear
1:50 AM 44.6 °F 39.2 °F 42.8 °F 93% 30.12 in 6.2 mi SW 10.4 mph - N/A   Mostly Cloudy
2:20 AM 44.6 °F 38.8 °F 42.8 °F 93% 30.09 in 6.2 mi SW 11.5 mph - N/A   Overcast
2:50 AM 46.4 °F 40.7 °F 42.8 °F 87% 30.09 in 6.2 mi SW 12.7 mph - N/A   Overcast
3:20 AM 44.6 °F 38.4 °F 42.8 °F 93% 30.09 in 6.2 mi SW 12.7 mph - N/A   Mostly Cloudy
3:50 AM 44.6 °F 38.4 °F 42.8 °F 93% 30.09 in 6.2 mi SW 12.7 mph - N/A   Mostly Cloudy
4:20 AM 44.6 °F 39.7 °F 42.8 °F 93% 30.09 in 6.2 mi WSW 9.2 mph - N/A   Mostly Cloudy
4:50 AM 46.4 °F 41.5 °F 42.8 °F 87% 30.06 in 6.2 mi WSW 10.4 mph - N/A   Scattered Clouds
5:20 AM 46.4 °F 40.7 °F 44.6 °F 93% 30.06 in 6.2 mi SW 12.7 mph - N/A   Mostly Cloudy
5:50 AM 46.4 °F 40.7 °F 42.8 °F 87% 30.06 in 6.2 mi SW 12.7 mph - N/A   Mostly Cloudy
6:20 AM 44.6 °F 38.4 °F 42.8 °F 93% 30.06 in 6.2 mi SW 12.7 mph - N/A   Scattered Clouds
6:50 AM 44.6 °F 39.2 °F 42.8 °F 93% 30.06 in 6.2 mi WSW 10.4 mph - N/A   Partly Cloudy
7:20 AM 44.6 °F 39.2 °F 42.8 °F 93% 30.06 in 6.2 mi SW 10.4 mph - N/A   Partly Cloudy
7:50 AM 46.4 °F 41.5 °F 44.6 °F 93% 30.06 in 6.2 mi WSW 10.4 mph - N/A   Scattered Clouds
8:20 AM 46.4 °F 41.5 °F 44.6 °F 93% 30.06 in 6.2 mi WSW 10.4 mph - N/A   Scattered Clouds
8:50 AM 46.4 °F 41.5 °F 44.6 °F 93% 30.06 in 6.2 mi WSW 10.4 mph - N/A   Partly Cloudy
9:20 AM 46.4 °F 41.5 °F 44.6 °F 93% 30.06 in 6.2 mi WSW 10.4 mph - N/A   Scattered Clouds
9:50 AM 48.2 °F - 44.6 °F 87% 30.06 in 6.2 mi WSW 10.4 mph - N/A   Mostly Cloudy
10:20 AM 48.2 °F - 44.6 °F 87% 30.06 in 6.2 mi WSW 11.5 mph - N/A   Overcast
10:50 AM 50.0 °F - 44.6 °F 82% 30.06 in 6.2 mi WSW 9.2 mph - N/A   Mostly Cloudy
11:20 AM 50.0 °F - 46.4 °F 87% 30.06 in 6.2 mi WSW 10.4 mph - N/A   Scattered Clouds
11:50 AM 50.0 °F - 44.6 °F 82% 30.06 in 6.2 mi WSW 10.4 mph - N/A   Scattered Clouds
12:20 PM 51.8 °F - 46.4 °F 82% 30.04 in 6.2 mi WSW 10.4 mph - N/A   Scattered Clouds
12:50 PM 51.8 °F - 44.6 °F 76% 30.04 in 6.2 mi WSW 12.7 mph - N/A   Mostly Cloudy
1:20 PM 51.8 °F - 42.8 °F 71% 30.04 in 6.2 mi West 8.1 mph - N/A   Overcast
1:50 PM 51.8 °F - 42.8 °F 71% 30.04 in 6.2 mi West 8.1 mph - N/A   Mostly Cloudy
2:20 PM 51.8 °F - 41.0 °F 67% 30.04 in 6.2 mi WNW 8.1 mph - N/A   Mostly Cloudy
2:50 PM 51.8 °F - 41.0 °F 67% 30.04 in 6.2 mi West 9.2 mph - N/A   Mostly Cloudy
3:20 PM 50.0 °F - 41.0 °F 71% 30.04 in 6.2 mi West 6.9 mph - N/A   Mostly Cloudy
3:50 PM 50.0 °F - 41.0 °F 71% 30.04 in 6.2 mi West 6.9 mph - N/A   Mostly Cloudy
4:20 PM 50.0 °F - 41.0 °F 71% 30.04 in 6.2 mi West 6.9 mph - N/A   Mostly Cloudy
4:50 PM 50.0 °F - 41.0 °F 71% 30.04 in 6.2 mi West 5.8 mph - N/A   Mostly Cloudy
5:20 PM 50.0 °F - 41.0 °F 71% 30.04 in 6.2 mi West 5.8 mph - N/A   Mostly Cloudy
5:50 PM 50.0 °F - 41.0 °F 71% 30.04 in 6.2 mi West 4.6 mph - N/A   Mostly Cloudy
6:20 PM 48.2 °F - 41.0 °F 76% 30.04 in 6.2 mi WSW 5.8 mph - N/A   Mostly Cloudy
6:50 PM 48.2 °F - 41.0 °F 76% 30.04 in 6.2 mi WSW 4.6 mph - N/A   Mostly Cloudy
7:20 PM 48.2 °F - 41.0 °F 76% 30.04 in 6.2 mi WSW 4.6 mph - N/A   Mostly Cloudy
7:50 PM 48.2 °F - 41.0 °F 76% 30.04 in 6.2 mi WSW 4.6 mph - N/A   Mostly Cloudy
8:20 PM 46.4 °F 43.5 °F 42.8 °F 87% 30.04 in 6.2 mi SW 5.8 mph - N/A   Mostly Cloudy
8:50 PM 46.4 °F 43.5 °F 42.8 °F 87% 30.04 in 6.2 mi SW 5.8 mph - N/A   Mostly Cloudy
9:20 PM 46.4 °F 43.5 °F 42.8 °F 87% 30.04 in 6.2 mi SW 5.8 mph - N/A   Mostly Cloudy
9:50 PM 46.4 °F 42.4 °F 42.8 °F 87% 30.04 in 6.2 mi SW 8.1 mph - N/A   Mostly Cloudy
10:20 PM 46.4 °F 42.4 °F 42.8 °F 87% 30.04 in 6.2 mi SW 8.1 mph - N/A   Overcast
10:50 PM 46.4 °F 42.9 °F 42.8 °F 87% 30.04 in 6.2 mi SW 6.9 mph - N/A   Overcast
11:20 PM 46.4 °F 43.5 °F 42.8 °F 87% 30.04 in 6.2 mi WSW 5.8 mph - N/A   Overcast
11:50 PM 46.4 °F 43.5 °F 42.8 °F 87% 30.01 in 6.2 mi SW 5.8 mph - N/A   Overcast